2017-008T

Last updated on Tue Feb 28 2017 00:15:03 GMT+0000 (Greenwich Mean Time)

1 41965U 17008T 17058.70131181 .00001518 00000-0 70796-4 0 9992 2 41965 97.5105 120.3046 0008427 207.2707 152.8084 15.21395977 1802
UTC large
Height (km)
Speed (km/s)
/
Latitude / Longitude
Inclination (degrees)
Orbital Period (minutes)
Azimuth
Elevation
Range (km)
Doppler Factor

Next 0 passes for location: London (51.5072 / 0.1276)

Sorry there are no passes over London.